Location: Wells
(51.2093°N, 2.6446°W)
Time: 05:43:39
(UTC+01:00)

ITUPSAT 1 - Pass Details

Date: 16 March 2026
Orbit: 686 x 698 km, 98.4° (Epoch: 15 April)

Event Time Altitude Azimuth Distance (km) Brightness Sun altitude
Rises 00:09:10 0° 12° (NNE) 3,076 ? -40.6°
Reaches altitude 10° 00:11:26 10° 10° (N) 2,153 ? -40.6°
Enters shadow 00:11:56 13° 9° (N) 1,952 ? -40.6°
